Waarnemingen

Advertentie
Mijn weer
F16-A, Nederland (6206): temperatuur & dauwpunt: 15.01.2017 11:00:00 - 21.01.2017 11:00:00 (CET)F16-A, Nederland (6206): windsnelheid & windstoten: 15.01.2017 11:00:00 - 21.01.2017 11:00:00 (CET)F16-A, Nederland (6206): windrichting: 15.01.2017 11:00:00 - 21.01.2017 11:00:00 (CET)F16-A, Nederland (6206): luchtdruk: 15.01.2017 11:00:00 - 21.01.2017 11:00:00 (CET)F16-A, Nederland (6206): zicht: 15.01.2017 11:00:00 - 21.01.2017 11:00:00 (CET)
Datum & Tijd tt [°C] td [°C] ff [km/u] ff [kn] fx [km/u] fx [kn] dd ppp [hPa] vv [km]
21.01.2017 11:00:00 5,7 2,9 16 9 22 12 OZO 1032,4 10
21.01.2017 10:00:00 5,9 2,8 18 10 22 12 ZO 1032,6 10
21.01.2017 09:00:00 5,9 3,0 14 8 22 12 ZO 1032,4 22
21.01.2017 08:00:00 6,4 3,2 11 6 18 10 OZO 1032,3 10
21.01.2017 07:00:00 6,6 3,0 11 6 18 10 OZO 1032,5 32
21.01.2017 06:00:00 6,5 3,1 16 9 18 10 O 1032,8 10
21.01.2017 05:00:00 6,3 2,8 13 7 18 10 OZO 1033,1 10
21.01.2017 04:00:00 6,2 2,9 11 6 22 12 OZO 1033,6 10
21.01.2017 03:00:00 6,0 2,7 13 7 22 12 O 1033,8 10
21.01.2017 02:00:00 5,9 2,7 11 6 18 10 ONO 1033,9 10
21.01.2017 01:00:00 5,9 2,6 9 5 11 6 O 1034,4 10
21.01.2017 00:00:00 6,1 2,5 11 6 14 8 O 1034,7 10
20.01.2017 23:00:00 6,3 3,0 8 4 14 8 ONO 1034,9 10
20.01.2017 22:00:00 6,3 3,0 5 3 14 8 ONO 1035,2 10
20.01.2017 21:00:00 6,2 2,6 9 5 14 8 ONO 1035,2 10
20.01.2017 20:00:00 6,2 2,5 8 4 22 12 NO 1035,2 10
20.01.2017 19:00:00 6,0 2,6 8 4 22 12 - 1035,3 10
20.01.2017 18:00:00 6,1 3,1 11 6 22 12 NW 1035,5 10
20.01.2017 17:00:00 6,3 3,7 11 6 14 8 NNW 1035,5 10
20.01.2017 16:00:00 6,2 4,1 5 3 14 8 WNW 1035,5 10
20.01.2017 15:00:00 6,1 3,6 9 5 18 10 WNW 1035,6 10
20.01.2017 14:00:00 6,3 3,6 11 6 22 12 WNW 1035,8 10
20.01.2017 13:00:00 6,2 3,9 15 8 18 10 WNW 1036,2 10
20.01.2017 12:00:00 6,1 4,4 11 6 14 8 NW 1036,6 10
20.01.2017 11:00:00 6,3 4,4 13 7 14 8 WNW 1036,7 10
20.01.2017 10:00:00 6,3 4,7 11 6 14 8 WNW 1036,5 10
20.01.2017 09:00:00 6,1 5,0 11 6 18 10 - 1036,3 3,6
20.01.2017 08:00:00 6,1 5,2 15 8 22 12 - 1036,1 10
20.01.2017 07:00:00 6,1 5,0 11 6 11 6 NW 1036,1 10
20.01.2017 06:00:00 6,4 5,1 9 5 22 12 - 1036,2 10
20.01.2017 05:00:00 6,5 5,5 15 8 22 12 - 1036,5 10
20.01.2017 04:00:00 6,2 5,7 9 5 18 10 WNW 1036,5 4,8
20.01.2017 03:00:00 6,3 5,5 4 2 11 6 - 1036,6 3,7
20.01.2017 02:00:00 6,2 5,4 5 3 7 4 W 1036,7 4,4
20.01.2017 01:00:00 6,2 5,6 5 3 7 4 WNW 1037,0 4,5
20.01.2017 00:00:00 6,4 5,1 5 3 7 4 W 1037,3 7
19.01.2017 23:00:00 6,4 5,0 5 3 14 8 - 1037,4 10
19.01.2017 22:00:00 6,5 6,1 5 3 22 12 - 1037,4 10
19.01.2017 21:00:00 6,5 6,3 11 6 22 12 - 1037,3 10
19.01.2017 20:00:00 6,7 6,3 9 5 18 10 NNW 1037,1 9
19.01.2017 19:00:00 6,6 5,9 16 9 18 10 ZW 1036,8 10
19.01.2017 18:00:00 6,6 5,8 18 10 18 10 ZW 1036,9 10
19.01.2017 17:00:00 6,6 5,8 18 10 18 10 ZW 1036,8 10
19.01.2017 16:00:00 6,5 5,7 18 10 18 10 ZW 1036,9 10
19.01.2017 15:00:00 6,7 5,9 16 9 18 10 WZW 1036,7 8
19.01.2017 14:00:00 6,7 5,9 18 10 22 12 WZW 1036,9 10
19.01.2017 13:00:00 6,4 5,5 22 12 22 12 ZW 1037,4 10
19.01.2017 12:00:00 5,9 4,8 24 13 22 12 ZZW 1037,7 10
19.01.2017 11:00:00 6,1 4,7 22 12 22 12 ZZW 1038,1 10
19.01.2017 10:00:00 6,1 4,8 18 10 18 10 ZW 1037,9 10
19.01.2017 09:00:00 6,4 4,9 14 8 18 10 ZZW 1037,7 20
19.01.2017 08:00:00 6,2 4,7 14 8 18 10 ZW 1037,2 16
19.01.2017 07:00:00 6,3 4,4 11 6 18 10 ZZW 1036,8 23
19.01.2017 06:00:00 6,3 4,6 11 6 18 10 ZZW 1037,0 20
19.01.2017 05:00:00 6,2 4,6 16 9 18 10 ZW 1037,3 10
19.01.2017 04:00:00 6,1 4,4 14 8 18 10 ZW 1037,4 10
19.01.2017 03:00:00 5,9 4,0 14 8 18 10 ZW 1037,3 10
19.01.2017 02:00:00 6,0 3,9 14 8 18 10 ZW 1037,6 11
19.01.2017 01:00:00 6,4 3,8 18 10 18 10 WZW 1037,5 10
19.01.2017 00:00:00 6,7 3,4 16 9 18 10 WZW 1037,7 10
18.01.2017 23:00:00 6,5 2,3 18 10 18 10 WZW 1037,6 10
18.01.2017 22:00:00 6,3 1,5 21 11 22 12 WZW 1037,6 10
18.01.2017 21:00:00 6,2 0,7 22 12 25 14 WZW 1037,8 10
18.01.2017 20:00:00 6,0 -0,3 26 14 25 14 ZW 1037,9 10
18.01.2017 19:00:00 6,0 0,1 26 14 25 14 ZW 1037,7 10
18.01.2017 18:00:00 6,0 -0,3 28 15 29 16 ZW 1037,7 10
18.01.2017 17:00:00 5,9 -1,3 29 16 32 18 ZW 1037,7 10
18.01.2017 16:00:00 5,8 -3,1 31 17 32 18 ZW 1037,7 10
18.01.2017 15:00:00 5,8 -3,2 31 17 32 18 ZW 1037,7 10
18.01.2017 14:00:00 5,9 -1,8 29 16 29 16 ZW 1037,8 10
18.01.2017 13:00:00 5,7 -2,9 31 17 32 18 ZW 1038,0 10
18.01.2017 12:00:00 5,7 -2,1 31 17 32 18 ZW 1038,2 10
18.01.2017 11:00:00 5,8 -1,0 34 18 32 18 ZW 1038,4 10
18.01.2017 10:00:00 5,7 -1,3 37 20 36 19 ZW 1038,1 10
18.01.2017 09:00:00 5,7 -1,7 34 18 32 18 ZW 1037,6 10
18.01.2017 08:00:00 5,7 -1,1 31 17 32 18 ZW 1037,4 10
18.01.2017 07:00:00 5,7 -1,1 31 17 32 18 ZW 1037,0 10
18.01.2017 06:00:00 5,5 -1,3 31 17 32 18 ZW 1037,0 10
18.01.2017 05:00:00 5,5 -0,4 34 18 36 19 ZW 1037,4 10
18.01.2017 04:00:00 5,4 -0,5 31 17 36 19 Z 1037,3 10
18.01.2017 03:00:00 5,3 -1,2 29 16 32 18 OZO 1037,5 10
18.01.2017 02:00:00 5,2 -0,8 29 16 32 18 - 1037,9 10
18.01.2017 01:00:00 5,1 -0,9 29 16 32 18 ZZW 1037,9 10
18.01.2017 00:00:00 5,0 -0,6 29 16 32 18 ZZW 1038,0 10
17.01.2017 23:00:00 5,1 -0,2 28 15 32 18 - 1037,9 10
17.01.2017 22:00:00 4,8 -0,9 31 17 32 18 - 1037,8 10
17.01.2017 21:00:00 4,7 -0,9 29 16 36 19 ZZW 1037,6 10
17.01.2017 20:00:00 4,8 -1,2 29 16 32 18 - 1037,7 10
17.01.2017 19:00:00 4,6 -1,6 28 15 32 18 - 1037,2 10
17.01.2017 18:00:00 4,6 -1,2 29 16 32 18 ZZW 1037,4 10
17.01.2017 17:00:00 4,5 -1,8 28 15 32 18 ZZW 1037,1 10
17.01.2017 16:00:00 4,4 -3,4 26 14 32 18 - 1037,0 10
17.01.2017 15:00:00 4,3 -4,1 28 15 32 18 - 1037,0 10
17.01.2017 14:00:00 4,2 -3,8 24 13 29 16 ZZW 1037,4 10
17.01.2017 13:00:00 4,1 -3,4 - - - - - 1037,3 10
17.01.2017 12:00:00 4,0 -4,3 - - - - - 1037,1 10
17.01.2017 11:00:00 4,0 -3,9 - - - - - 1037,2 10
17.01.2017 10:00:00 4,0 -6,1 - - - - - 1036,7 10
17.01.2017 09:00:00 4,1 -4,8 - - - - - 1036,5 10
17.01.2017 08:00:00 3,8 -5,3 - - - - - 1035,7 10
17.01.2017 07:00:00 3,8 -5,0 - - - - - 1035,5 10
17.01.2017 06:00:00 3,7 -4,2 - - - - - 1035,3 10
17.01.2017 05:00:00 3,6 -4,5 - - - - - 1035,2 10
17.01.2017 04:00:00 3,5 -4,4 - - - - - 1034,8 10
17.01.2017 03:00:00 3,8 -4,3 - - - - - 1034,8 10
17.01.2017 02:00:00 3,8 -5,2 - - - - - 1034,1 10
17.01.2017 01:00:00 3,9 -5,5 - - - - - 1034,0 10
17.01.2017 00:00:00 3,8 -6,4 - - - - - 1033,7 10
16.01.2017 23:00:00 4,0 -5,0 - - - - - 1033,5 10
16.01.2017 22:00:00 4,0 -4,9 - - - - - 1033,1 10
16.01.2017 21:00:00 4,1 -6,0 - - - - - 1032,5 10
16.01.2017 20:00:00 4,2 -4,8 - - - - - 1031,9 10
16.01.2017 19:00:00 4,5 -1,8 - - - - - 1030,9 10
16.01.2017 18:00:00 4,5 -4,4 - - - - - 1030,5 10
16.01.2017 17:00:00 4,5 -4,0 15 8 - - - 1030,1 10
16.01.2017 16:00:00 4,5 -3,3 - - - - - 1029,6 10
16.01.2017 15:00:00 4,6 -3,2 - - - - - 1029,0 10
16.01.2017 14:00:00 4,6 -2,6 - - - - - 1028,7 10
16.01.2017 13:00:00 4,7 -1,4 - - - - - 1028,7 10
16.01.2017 12:00:00 5,5 -4,5 - - - - - 1028,5 10
16.01.2017 11:00:00 5,5 -3,4 - - - - - 1028,1 10
16.01.2017 10:00:00 5,3 -4,1 16 9 22 12 - 1027,8 10
16.01.2017 09:00:00 5,3 -2,7 15 8 18 10 - 1027,2 10
16.01.2017 08:00:00 5,1 -1,6 8 4 18 10 - 1026,7 10
16.01.2017 07:00:00 4,4 -1,2 22 12 25 14 - 1026,3 10
16.01.2017 06:00:00 5,0 -0,8 28 15 32 18 - 1026,0 10
16.01.2017 05:00:00 5,4 -0,7 15 8 29 16 - 1025,7 10
16.01.2017 04:00:00 5,4 -0,8 13 7 25 14 - 1025,6 10
16.01.2017 03:00:00 5,2 -0,8 16 9 18 10 - 1025,3 10
16.01.2017 02:00:00 5,6 -1,2 16 9 22 12 - 1024,7 10
16.01.2017 01:00:00 5,4 -1,7 21 11 25 14 - 1025,0 10
16.01.2017 00:00:00 5,0 0,3 16 9 22 12 - 1024,7 10
15.01.2017 23:00:00 5,0 0,7 16 9 22 12 - 1024,2 10
15.01.2017 22:00:00 5,3 0,4 11 6 18 10 - 1023,8 10
15.01.2017 21:00:00 5,4 -0,5 29 16 32 18 - 1023,5 10
15.01.2017 20:00:00 6,1 -2,0 16 9 22 12 - 1022,8 10
15.01.2017 19:00:00 6,0 -1,6 18 10 22 12 - 1022,5 10
15.01.2017 18:00:00 6,0 -0,2 15 8 18 10 - 1021,9 10
15.01.2017 17:00:00 5,9 -0,2 11 6 22 12 - 1021,4 10
15.01.2017 16:00:00 6,2 -0,1 9 5 22 12 - 1020,9 10
15.01.2017 15:00:00 5,7 -0,8 5 3 14 8 - 1020,4 10
15.01.2017 14:00:00 5,2 -0,6 8 4 22 12 - 1020,2 10
15.01.2017 13:00:00 6,1 -1,2 11 6 22 12 - 1019,9 10
15.01.2017 12:00:00 6,2 -1,2 11 6 18 10 - 1019,7 10
15.01.2017 11:00:00 5,9 -1,4 13 7 18 10 - 1019,7 10

tt = temperatuur
td = dauwpunt
ff = windsnelheid
fx = windstoten
dd = windrichting
ppp = luchtdruk
vv = zicht

Weerstations in de omgeving